Weather History for LHPA - October, 2012

Change the Weather History Date:

Friday, October 12, 2012

  Actual Average Record
Temperature  
Mean Temperature 54 °F -  
Max Temperature 59 °F - - ()
Min Temperature 48 °F - - ()
Degree Days  
Heating Degree Days 12    
Growing Degree Days 4 (Base 50)    
Moisture  
Dew Point 45 °F    
Average Humidity 74    
Maximum Humidity 93    
Minimum Humidity 55    
Precipitation  
Precipitation 0.00 in - - ()
Sea Level Pressure  
Sea Level Pressure 29.94 in    
Wind  
Wind Speed 5 mph ()    
Max Wind Speed 9 mph    
Max Gust Speed -    
Visibility 6.2 miles    
Events      
T = Trace of Precipitation, MM = Missing Value Source: Averaged Metar Reports

Daily Weather History Graph

Daily Weather History Graph

Search for Another Location

Airport or City:

Trip Planner

Search our weather history database for the weather conditions in past years. The results will help you decide how hot, cold, wet, or windy it might be!

Date:

Astronomy

Oct. 12, 2012 Rise Set
Actual Time 7:04 AM CEST 6:07 PM CEST
Civil Twilight 6:33 AM CEST 6:38 PM CEST
Nautical Twilight 5:58 AM CEST 7:13 PM CEST
Astronomical Twilight 5:22 AM CEST 7:49 PM CEST
Moon 3:15 AM CEST (10/12) 4:17 PM CEST (10/12)
Length of Visible Light 12h 04m
Length of Day
11h 02m
Waning Crescent, 12% of the Moon is Illuminated
Oct 12
Waning Crescent
Oct 15
New
Oct 22
First Quarter
Oct 29
Full
Nov 7
Last Quarter

Hourly Weather History & Observations

Time (CEST) Temp. Dew Point Humidity Pressure Visibility Wind Dir Wind Speed Gust Speed Precip Events Conditions
12:15 AM 51.8 °F 46.4 °F 82% 29.95 in - South 4.5 mph - N/A   Clear
12:45 AM 51.8 °F 46.4 °F 82% 29.95 in - SSE 6.7 mph - N/A   Clear
1:15 AM 50.0 °F 46.4 °F 87% 29.95 in - SSE 6.7 mph - N/A   Clear
1:45 AM 51.8 °F 46.4 °F 82% 29.95 in 6.2 mi SE 8.9 mph - N/A   Mostly Cloudy
2:45 AM 48.2 °F 46.4 °F 93% 29.92 in 6.2 mi SE 6.7 mph - N/A   Mostly Cloudy
3:15 AM 50.0 °F 46.4 °F 87% 29.92 in 6.2 mi SE 4.5 mph - N/A   Mostly Cloudy
3:45 AM - - N/A% - 6.2 mi Variable 4.5 mph - N/A   Clear
4:45 AM 50.0 °F 46.4 °F 87% 29.92 in 6.2 mi ESE 4.5 mph - N/A   Mostly Cloudy
5:15 AM 51.8 °F 46.4 °F 82% 29.92 in 6.2 mi ESE 4.5 mph - N/A   Mostly Cloudy
5:45 AM 51.8 °F 46.4 °F 82% 29.92 in 6.2 mi ESE 4.5 mph - N/A   Mostly Cloudy
6:15 AM 51.8 °F 46.4 °F 82% 29.92 in 6.2 mi East 4.5 mph - N/A   Mostly Cloudy
6:45 AM - - N/A% - 6.2 mi Variable 4.5 mph - N/A   Mostly Cloudy
7:15 AM 51.8 °F 46.4 °F 82% 29.92 in 6.2 mi ESE 4.5 mph - N/A   Mostly Cloudy
7:45 AM 51.8 °F 46.4 °F 82% 29.92 in 6.2 mi ESE 6.7 mph - N/A   Mostly Cloudy
8:15 AM 51.8 °F 46.4 °F 82% 29.92 in 6.2 mi SE 4.5 mph - N/A   Mostly Cloudy
8:45 AM 51.8 °F 46.4 °F 82% 29.92 in 6.2 mi SE 6.7 mph - N/A   Mostly Cloudy
9:15 AM 53.6 °F 48.2 °F 82% 29.92 in 6.2 mi SSE 6.7 mph - N/A   Mostly Cloudy
9:45 AM - - N/A% - 6.2 mi SE 8.9 mph - N/A   Mostly Cloudy
10:45 AM 55.4 °F 44.6 °F 67% 29.95 in 6.2 mi South 6.7 mph - N/A   Overcast
11:15 AM 55.4 °F 44.6 °F 67% 29.95 in 6.2 mi SSE 6.7 mph - N/A   Overcast
11:45 AM 55.4 °F 44.6 °F 67% 29.95 in 6.2 mi South 6.7 mph - N/A   Overcast
12:45 PM - - N/A% - 6.2 mi SSE 8.9 mph - N/A   Overcast
1:15 PM 55.4 °F 42.8 °F 63% 29.95 in 6.2 mi SSE 8.9 mph - N/A   Overcast
1:45 PM 55.4 °F 42.8 °F 63% 29.92 in 6.2 mi SE 8.9 mph - N/A   Overcast
2:15 PM 57.2 °F 42.8 °F 59% 29.92 in 6.2 mi ESE 4.5 mph - N/A   Overcast
2:45 PM 57.2 °F 41.0 °F 55% 29.92 in 6.2 mi ESE 4.5 mph - N/A   Overcast
3:15 PM 57.2 °F 41.0 °F 55% 29.92 in 6.2 mi ESE 4.5 mph - N/A   Overcast
3:45 PM - - N/A% - 6.2 mi SSE 8.9 mph - N/A   Overcast
4:15 PM 59.0 °F 42.8 °F 55% 29.92 in 6.2 mi East 2.2 mph - N/A   Overcast
4:45 PM 59.0 °F 44.6 °F 59% 29.92 in 6.2 mi East 2.2 mph - N/A   Overcast
5:45 PM 57.2 °F 46.4 °F 67% 29.92 in 6.2 mi East 2.2 mph - N/A   Overcast
6:15 PM 55.4 °F 44.6 °F 67% 29.92 in 6.2 mi NE 4.5 mph - N/A   Overcast
6:45 PM - - N/A% - 6.2 mi Variable 4.5 mph - N/A   Overcast
7:15 PM 55.4 °F 46.4 °F 72% 29.92 in 6.2 mi ENE 2.2 mph - N/A   Overcast
7:45 PM 55.4 °F 44.6 °F 67% 29.92 in 6.2 mi East 2.2 mph - N/A   Overcast
8:15 PM 53.6 °F 44.6 °F 72% 29.95 in 6.2 mi East 2.2 mph - N/A   Mostly Cloudy
8:45 PM 53.6 °F 44.6 °F 72% 29.95 in 6.2 mi ENE 2.2 mph - N/A   Mostly Cloudy
9:15 PM 53.6 °F 46.4 °F 77% 29.95 in 6.2 mi Calm Calm - N/A   Mostly Cloudy
9:45 PM 55.4 °F 44.6 °F 67% 29.95 in 6.2 mi East 2.2 mph - N/A   Mostly Cloudy
10:15 PM 53.6 °F 46.4 °F 77% 29.95 in 6.2 mi ESE 2.2 mph - N/A   Mostly Cloudy
10:45 PM 53.6 °F 46.4 °F 77% 29.98 in 6.2 mi SE 2.2 mph - N/A   Mostly Cloudy
11:15 PM 51.8 °F 44.6 °F 76% 29.98 in 6.2 mi SSE 4.5 mph - N/A   Mostly Cloudy
11:45 PM 51.8 °F 46.4 °F 82% 29.98 in 6.2 mi SSE 4.5 mph - N/A   Mostly Cloudy